Hourly Data Report for June 11, 2020

OTTAWA INTL A
ONTARIO
Current Station Operator: NAVCAN

45°19'00.000" N
75°40'00.000" W
114.90 m
6106001
71628
YOW

Download Data

Hourly Data (June 2020)
Hourly Data Report for June 11, 2020
TIME Temp Definition
°C
Dew Point Definition
°C
Rel Hum Definition
%
Wind Dir Definition
10's deg

Wind Spd Definition
km/h
Visibility Definition
km
Stn Press Definition
kPa
Hmdx Definition


Wind Chill Definition


Weather Definition


00:00 22.8 19.0 79 28 23 16.1 99.17 30   Rain Showers
01:00 21.0 19.5 91 36 1 16.1 99.08 28   Cloudy
02:00 20.6 19.6 94 12 4 16.1 99.00 28   Rain Showers
03:00 20.2 19.7 97 29 6 16.1 98.99 28   LegendNANA
04:00 19.5 19.2 98 16 10 24.1 98.96     Mostly Cloudy
05:00 19.4 19.1 98 16 10 24.1 98.99     LegendNANA
06:00 20.6 19.0 90 21 21 24.1 99.11 27   LegendNANA
07:00 21.5 18.0 80 20 26 24.1 99.13 28   Mostly Cloudy
08:00 22.5 16.4 68 22 34 24.1 99.19 27   LegendNANA
09:00 22.3 15.4 65 21 30 24.1 99.27 27   LegendNANA
10:00 22.0 15.2 65 21 33 24.1 99.35 26   Cloudy
11:00 21.1 15.8 71 24 27 24.1 99.48 26   LegendNANA
12:00 22.7 12.9 54 23 35 24.1 99.59 25   LegendNANA
13:00 23.1 12.3 50 25 28 24.1 99.71 26   Mainly Clear
14:00 21.3 9.0 45 25 32 24.1 99.84     LegendNANA
15:00 22.0 8.9 43 25 40 24.1 99.88     LegendNANA
16:00 22.6 9.2 42 23 31 24.1 99.91     Mainly Clear
17:00 21.8 9.9 46 24 21 24.1 99.97     LegendNANA
18:00 20.9 9.8 49 26 23 24.1 100.03     LegendNANA
19:00 20.0 10.3 53 27 12 24.1 100.11     Mainly Clear
20:00 17.4 9.8 60 28 10 24.1 100.16     LegendNANA
21:00 17.0 9.8 62 22 4 24.1 100.22     LegendNANA
22:00 15.6 10.6 72 17 9 24.1 100.20     Mostly Cloudy
23:00 15.3 10.4 73 16 14 24.1 100.17     LegendNANA

Notes on Data Quality.

Legend

  • E = Estimated
  • M = Missing
  • NA = Not Available*
  • [empty] = Indicates an unobserved value
Date modified: